User: anonymous   Login
Location: Baix
(44.7118°N, 4.7648°E)
Time: 12:20:35
(UTC+00:00)
Language:

AQUA - Orbit

View from above orbital plane
View from above orbital plane
View from above satellite
View from above satellite

Ground track
Ground track

The orbit data is extracted from the following two-line orbital elements,

1 27424U 02022A   20297.21457626  .00000119  00000-0  36546-4 0  9997
2 27424  98.2015 235.9613 0001205  11.3139 118.4837 14.57108873982523
Epoch (UTC): 23 October 2020 05:08:59
Eccentricity: 0.0001205
inclination: 98.2015°
perigee height: 701 km
apogee height: 703 km
right ascension of ascending node: 235.9613°
argument of perigee: 11.3139°
revolutions per day: 14.57108873
mean anomaly at epoch: 118.4837°
orbit number at epoch: 98252

The dashed part of the orbit path shows where the satellite is in the earth's shadow,  

DLR